Date String (YYYY-MM-DD hh:mm:ss) UTC,Instrument flags,Ambient pressure (hPa),Sample flow (lpm),Bypass flow (lpm),Sample temperature (°C),Ambient temperature (°C),ASC tube jacket temperature (°C),LED temperature (°C),Box temperature (°C),Sample RH (%),Span deviation,Mass concentration (μg/m³),Mass concentration (μg/m³),Mass concentration (μg/m³)
DateTimeUTC,F1_M11,P_M11,Q1_M11,Q2_M11,T1_M11,T2_M11,T3_M11,T4_M11,T5_M11,U1_M11,ZSPAN_M11,X0_M11,X2_M11,X1_M11
2022-09-09 03:00:00,,0822.8,4.98,0.00,29.7,28.7,00.0,38.3,31.6,21.1,0000.0,0017.47,0009.52,0008.07
2022-09-09 03:01:00,,0822.9,5.02,0.00,29.7,28.8,00.0,38.3,31.7,21.0,0000.0,0017.18,0009.50,0008.06
2022-09-09 03:02:00,,0822.8,4.99,0.00,29.7,28.9,00.0,38.4,31.7,20.9,0000.0,0017.19,0009.50,0008.07
2022-09-09 03:03:00,,0822.8,5.01,0.00,29.8,28.9,00.0,38.4,31.7,20.6,0000.0,0017.91,0009.49,0008.09
2022-09-09 03:04:00,,0822.8,4.99,0.00,29.8,28.7,00.0,38.4,31.7,20.4,0001.3,0018.59,0009.54,0008.13
2022-09-09 03:05:00,,0822.8,5.00,0.00,29.8,27.4,00.0,38.4,31.7,19.9,0001.6,0018.23,0009.56,0008.18
2022-09-09 03:06:00,,0822.8,5.00,0.00,29.8,27.0,00.0,38.4,31.6,20.1,0001.2,0018.58,0009.60,0008.22
2022-09-09 03:07:00,,0822.8,5.00,0.00,29.7,27.2,00.0,38.4,31.5,19.9,0000.9,0019.15,0009.69,0008.25
2022-09-09 03:08:00,,0822.9,5.01,0.00,29.7,27.5,00.0,38.4,31.4,19.9,0001.1,0019.06,0009.69,0008.28
2022-09-09 03:09:00,,0823.0,4.99,0.00,29.7,27.8,00.0,38.4,31.5,20.0,0001.2,0019.25,0009.78,0008.32
2022-09-09 03:10:00,,0823.0,5.01,0.00,29.7,28.0,00.0,38.4,31.5,19.6,0001.1,0018.96,0009.81,0008.34
2022-09-09 03:11:00,,0822.9,5.00,0.00,29.7,28.2,00.0,38.4,31.6,19.9,0001.1,0018.36,0009.85,0008.39
2022-09-09 03:12:00,,0822.9,5.00,0.00,29.7,28.4,00.0,38.4,31.6,19.9,0001.3,0018.38,0009.91,0008.43
2022-09-09 03:13:00,,0823.0,4.99,0.00,29.7,28.6,00.0,38.4,31.7,20.0,0001.2,0018.63,0009.98,0008.46
2022-09-09 03:14:00,,0822.9,5.00,0.00,29.8,28.7,00.0,38.4,31.7,20.0,0001.5,0018.65,0010.09,0008.49
2022-09-09 03:15:00,,0822.9,5.00,0.00,29.8,28.8,00.0,38.5,31.7,19.9,0001.8,0018.23,0010.13,0008.49
2022-09-09 03:16:00,,0822.9,5.00,0.00,29.8,28.9,00.0,38.5,31.8,19.7,0002.2,0018.71,0010.21,0008.49
2022-09-09 03:17:00,,0822.9,5.00,0.00,29.9,28.4,00.0,38.5,31.7,19.6,0002.4,0018.75,0010.27,0008.52
2022-09-09 03:18:00,,0822.9,5.01,0.00,29.8,27.0,00.0,38.5,31.5,19.6,0002.0,0018.54,0010.29,0008.53
2022-09-09 03:19:00,,0822.9,4.99,0.00,29.7,26.3,00.0,38.4,31.4,19.8,0001.9,0018.69,0010.31,0008.54
2022-09-09 03:20:00,,0822.9,5.01,0.00,29.7,26.5,00.0,38.4,31.4,19.7,0002.0,0019.51,0010.30,0008.55
2022-09-09 03:21:00,,0822.9,4.99,0.00,29.6,26.8,00.0,38.4,31.3,19.9,0001.8,0020.15,0010.30,0008.58
2022-09-09 03:22:00,,0822.9,5.00,0.00,29.6,27.2,00.0,38.3,31.3,19.9,0001.6,0020.36,0010.34,0008.59
2022-09-09 03:23:00,,0822.9,5.00,0.00,29.6,27.5,00.0,38.3,31.3,19.7,0001.0,0020.43,0010.36,0008.59
2022-09-09 03:24:00,,0823.0,5.02,0.00,29.6,27.8,00.0,38.3,31.4,19.9,0000.9,0020.19,0010.33,0008.60
2022-09-09 03:25:00,,0823.0,5.00,0.00,29.6,28.0,00.0,38.3,31.4,19.6,0001.4,0019.42,0010.27,0008.62
2022-09-09 03:26:00,,0823.0,5.01,0.00,29.6,28.2,00.0,38.3,31.4,19.5,0001.7,0018.86,0010.21,0008.62
2022-09-09 03:27:00,,0823.0,4.98,0.00,29.6,28.4,00.0,38.3,31.5,19.2,0002.0,0018.18,0010.15,0008.63
2022-09-09 03:28:00,,0823.0,5.00,0.00,29.6,28.5,00.0,38.4,31.5,18.9,0001.9,0017.52,0010.07,0008.61
2022-09-09 03:29:00,,0823.0,5.01,0.00,29.7,28.6,00.0,38.4,31.6,18.9,0002.1,0017.32,0010.03,0008.59
2022-09-09 03:30:00,,0823.0,5.00,0.00,29.7,28.7,00.0,38.4,31.6,19.3,0002.0,0017.18,0010.02,0008.58
2022-09-09 03:31:00,,0823.0,4.99,0.00,29.7,28.8,00.0,38.4,31.7,18.9,0001.7,0016.85,0009.98,0008.55
2022-09-09 03:32:00,,0823.0,5.00,0.00,29.8,28.9,00.0,38.4,31.7,19.0,0002.1,0016.02,0009.95,0008.55
2022-09-09 03:33:00,,0822.9,5.01,0.00,29.8,28.9,00.0,38.5,31.8,18.8,0002.7,0016.10,0009.94,0008.53
2022-09-09 03:34:00,,0822.9,4.99,0.00,29.9,29.0,00.0,38.5,31.8,18.8,0002.4,0017.02,0009.86,0008.50
2022-09-09 03:35:00,,0823.0,5.00,0.00,29.9,28.7,00.0,38.5,31.8,18.6,0003.1,0017.13,0009.84,0008.47
2022-09-09 03:36:00,,0823.0,5.00,0.00,29.9,27.2,00.0,38.5,31.6,19.0,0001.6,0017.13,0009.79,0008.39
2022-09-09 03:37:00,,0822.9,4.99,0.00,29.8,26.4,00.0,38.5,31.5,19.0,0000.8,0017.24,0009.75,0008.34
2022-09-09 03:38:00,,0823.0,5.01,0.00,29.7,26.5,00.0,38.4,31.5,19.1,0001.3,0017.26,0009.70,0008.28
2022-09-09 03:39:00,,0823.0,4.99,0.00,29.6,26.8,00.0,38.4,31.3,19.2,0001.6,0017.45,0009.63,0008.22
2022-09-09 03:40:00,,0823.0,5.00,0.00,29.6,27.2,00.0,38.4,31.3,19.5,0000.9,0018.24,0009.56,0008.17
2022-09-09 03:41:00,,0823.0,5.01,0.00,29.6,27.5,00.0,38.4,31.4,19.6,0000.0,0018.31,0009.47,0008.09
2022-09-09 03:42:00,,0823.0,4.99,0.00,29.6,27.8,00.0,38.4,31.4,19.7,0000.0,0018.23,0009.41,0008.03
2022-09-09 03:43:00,,0823.0,5.01,0.00,29.6,28.0,00.0,38.4,31.4,19.8,0002.0,0019.02,0009.32,0007.94
2022-09-09 03:44:00,,0823.1,5.01,0.00,29.6,28.2,00.0,38.4,31.5,19.8,0002.6,0020.31,0009.21,0007.86
2022-09-09 03:45:00,,0823.1,5.00,0.00,29.6,28.3,00.0,38.4,31.5,19.8,0002.7,0019.60,0009.15,0007.82
2022-09-09 03:46:00,,0823.0,4.98,0.00,29.7,28.5,00.0,38.4,31.6,19.6,0002.9,0019.04,0009.10,0007.76
2022-09-09 03:47:00,,0823.0,5.00,0.00,29.7,28.6,00.0,38.4,31.6,19.8,0002.9,0019.05,0009.07,0007.74
2022-09-09 03:48:00,,0823.0,5.01,0.00,29.7,28.7,00.0,38.4,31.6,19.9,0002.8,0018.86,0008.97,0007.70
2022-09-09 03:49:00,,0823.0,4.98,0.00,29.8,28.8,00.0,38.4,31.7,19.8,0002.7,0019.11,0008.93,0007.68
2022-09-09 03:50:00,,0823.0,5.01,0.00,29.8,28.8,00.0,38.5,31.7,19.6,0002.5,0019.48,0008.92,0007.67
2022-09-09 03:51:00,,0822.9,4.99,0.00,29.8,28.9,00.0,38.5,31.8,19.5,0002.7,0018.90,0008.92,0007.66
2022-09-09 03:52:00,,0822.9,5.01,0.00,29.9,29.0,00.0,38.5,31.8,19.5,0002.8,0019.21,0008.92,0007.67
2022-09-09 03:53:00,,0823.0,5.01,0.00,29.9,28.8,00.0,38.5,31.9,19.6,0002.7,0019.02,0008.93,0007.68
2022-09-09 03:54:00,,0822.9,4.98,0.00,29.9,27.4,00.0,38.5,31.7,19.6,0001.9,0018.91,0008.99,0007.70
2022-09-09 03:55:00,,0822.8,5.01,0.00,29.8,26.3,00.0,38.5,31.5,19.5,0001.5,0017.05,0009.04,0007.73
2022-09-09 03:56:00,,0822.7,5.01,0.00,29.8,26.4,00.0,38.5,31.5,19.4,0001.5,0016.74,0009.09,0007.75
2022-09-09 03:57:00,,0822.8,5.00,0.00,29.7,26.7,00.0,38.4,31.3,19.4,0001.5,0016.65,0009.09,0007.75
2022-09-09 03:58:00,,0822.7,5.00,0.00,29.6,27.0,00.0,38.4,31.3,19.3,0001.5,0016.58,0009.07,0007.75
2022-09-09 03:59:00,,0822.8,5.00,0.00,29.6,27.4,00.0,38.4,31.3,19.5,0001.6,0016.76,0009.11,0007.76
